Time,TemperatureF,DewpointF,PressureIn,WindDirection,WindDirectionDegrees,WindSpeedMPH,WindSpeedGustMPH,Humidity,HourlyPrecipIn,Conditions,Clouds,dailyrainin,SolarRadiationWatts/m^2,SoftwareType,DateUTC
2013-08-15 00:00:00,58.6,41.5,29.73,SSE,168,4.0,6.0,53,0.00,,SKC,0.00,0.00,VWS V14.01,2013-08-15 06:00:00,
2013-08-15 00:13:00,55.9,40.5,29.73,SW,216,3.0,4.0,56,0.00,,SKC,0.00,0.00,VWS V14.01,2013-08-15 06:13:00,
2013-08-15 00:15:00,58.2,41.2,29.70,South,178,5.0,7.0,53,0.00,,SKC,0.00,0.00,VWS V14.01,2013-08-15 06:15:00,
2013-08-15 00:21:00,55.2,39.8,29.73,SSW,192,5.0,7.0,56,0.00,,SKC,0.00,0.00,VWS V14.01,2013-08-15 06:21:00,
2013-08-15 00:27:00,55.1,40.2,29.73,SSW,192,4.0,7.0,57,0.00,,SKC,0.00,0.00,VWS V14.01,2013-08-15 06:27:00,
2013-08-15 00:30:00,58.0,41.0,29.71,SSE,168,3.0,9.0,53,0.00,,SKC,0.00,0.00,VWS V14.01,2013-08-15 06:30:00,
2013-08-15 00:34:00,55.0,39.6,29.74,South,191,4.0,7.0,56,0.00,,SKC,0.00,0.00,VWS V14.01,2013-08-15 06:34:00,
2013-08-15 00:44:00,54.6,39.7,29.73,South,176,4.0,6.0,57,0.00,,SKC,0.00,0.00,VWS V14.01,2013-08-15 06:44:00,
2013-08-15 00:45:00,57.0,40.5,29.71,SW,233,4.0,6.0,54,0.00,,SKC,0.00,0.00,VWS V14.01,2013-08-15 06:45:00,
2013-08-15 00:55:00,54.6,39.7,29.73,South,191,6.0,9.0,57,0.00,,SKC,0.00,0.00,VWS V14.01,2013-08-15 06:55:00,
2013-08-15 01:00:00,54.6,39.7,29.73,SSW,196,3.0,9.0,57,0.00,,SKC,0.00,0.00,VWS V14.01,2013-08-15 07:00:00,
2013-08-15 01:06:00,54.4,39.5,29.70,SSW,196,3.0,9.0,57,0.00,,SKC,0.00,0.00,VWS V14.01,2013-08-15 07:06:00,
2013-08-15 01:11:00,54.1,39.2,29.70,SSW,198,4.0,9.0,57,0.00,,SKC,0.00,0.00,VWS V14.01,2013-08-15 07:11:00,
2013-08-15 01:15:00,55.1,40.2,29.73,SSW,194,4.0,7.0,57,0.00,,SKC,0.00,0.00,VWS V14.01,2013-08-15 07:15:00,
2013-08-15 01:17:00,54.1,39.2,29.70,SSW,198,3.0,9.0,57,0.00,,SKC,0.00,0.00,VWS V14.01,2013-08-15 07:17:00,
2013-08-15 01:22:00,53.9,39.5,29.70,SSW,198,1.0,4.0,58,0.00,,SKC,0.00,0.00,VWS V14.01,2013-08-15 07:22:00,
2013-08-15 01:27:00,53.7,39.3,29.70,SSW,198,3.0,4.0,58,0.00,,SKC,0.00,0.00,VWS V14.01,2013-08-15 07:27:00,
2013-08-15 01:30:00,55.0,39.6,29.74,South,191,4.0,7.0,56,0.00,,SKC,0.00,0.00,VWS V14.01,2013-08-15 07:30:00,
2013-08-15 01:34:00,53.3,39.3,29.72,SSW,198,0.0,0.0,59,0.00,,SKC,0.00,0.00,VWS V14.01,2013-08-15 07:34:00,
2013-08-15 01:40:00,52.9,39.4,29.72,SSW,198,0.0,0.0,60,0.00,,SKC,0.00,0.00,VWS V14.01,2013-08-15 07:40:00,
2013-08-15 01:45:00,54.5,39.6,29.73,SSW,192,4.0,6.0,57,0.00,,SKC,0.00,0.00,VWS V14.01,2013-08-15 07:45:00,
2013-08-15 01:46:00,52.4,38.9,29.72,SSW,198,1.0,2.0,60,0.00,,SKC,0.00,0.00,VWS V14.01,2013-08-15 07:46:00,
2013-08-15 01:53:00,51.9,38.9,29.72,SSW,198,1.0,2.0,61,0.00,,SKC,0.00,0.00,VWS V14.01,2013-08-15 07:53:00,
2013-08-15 02:00:00,51.4,38.4,29.73,SSW,198,1.0,5.0,61,0.00,,SKC,0.00,0.00,VWS V14.01,2013-08-15 08:00:00,
2013-08-15 02:09:00,51.4,38.8,29.76,SSW,198,0.0,0.0,62,0.00,,SKC,0.00,0.00,VWS V14.01,2013-08-15 08:09:00,
2013-08-15 02:15:00,54.1,39.2,29.70,SSW,198,3.0,9.0,57,0.00,,SKC,0.00,0.00,VWS V14.01,2013-08-15 08:15:00,
2013-08-15 02:18:00,51.2,38.6,29.76,SSW,198,0.0,1.0,62,0.00,,SKC,0.00,0.00,VWS V14.01,2013-08-15 08:18:00,
2013-08-15 02:25:00,50.8,38.7,29.76,SSW,198,0.0,1.0,63,0.00,,SKC,0.00,0.00,VWS V14.01,2013-08-15 08:25:00,
2013-08-15 02:30:00,53.5,39.5,29.70,SSW,198,0.0,4.0,59,0.00,,SKC,0.00,0.00,VWS V14.01,2013-08-15 08:30:00,
2013-08-15 02:32:00,50.5,38.8,29.76,SSW,198,0.0,1.0,64,0.00,,SKC,0.00,0.00,VWS V14.01,2013-08-15 08:32:00,
2013-08-15 02:37:00,50.4,38.7,29.78,SSW,198,0.0,0.0,64,0.00,,SKC,0.00,0.00,VWS V14.01,2013-08-15 08:37:00,
2013-08-15 02:44:00,49.7,38.4,29.78,SSW,198,0.0,0.0,65,0.00,,SKC,0.00,0.00,VWS V14.01,2013-08-15 08:44:00,
2013-08-15 02:45:00,52.2,38.8,29.72,SSW,198,2.0,4.0,60,0.00,,SKC,0.00,0.00,VWS V14.01,2013-08-15 08:45:00,
2013-08-15 02:49:00,49.5,38.6,29.78,SSW,198,0.0,0.0,66,0.00,,SKC,0.00,0.00,VWS V14.01,2013-08-15 08:49:00,
2013-08-15 02:58:00,48.8,38.7,29.78,SSW,198,0.0,0.0,68,0.00,,SKC,0.00,0.00,VWS V14.01,2013-08-15 08:58:00,
2013-08-15 03:00:00,51.4,38.4,29.73,SSW,198,0.0,5.0,61,0.00,,SKC,0.00,0.00,VWS V14.01,2013-08-15 09:00:00,
2013-08-15 03:08:00,48.2,38.5,29.79,SSW,198,0.0,0.0,69,0.00,,SKC,0.00,0.00,VWS V14.01,2013-08-15 09:08:00,
2013-08-15 03:16:00,47.6,38.0,29.79,SSW,198,0.0,3.0,69,0.00,,SKC,0.00,0.00,VWS V14.01,2013-08-15 09:16:00,
2013-08-15 03:22:00,47.3,38.0,29.80,SSW,198,0.0,0.0,70,0.00,,SKC,0.00,0.00,VWS V14.01,2013-08-15 09:22:00,
2013-08-15 03:28:00,47.0,38.1,29.80,SSW,198,0.0,1.0,71,0.00,,SKC,0.00,0.00,VWS V14.01,2013-08-15 09:28:00,
2013-08-15 03:30:00,50.5,38.8,29.76,SSW,198,0.0,1.0,64,0.00,,SKC,0.00,0.00,VWS V14.01,2013-08-15 09:30:00,
2013-08-15 03:43:00,46.9,38.0,29.80,SSW,198,1.0,2.0,71,0.00,,SKC,0.00,0.00,VWS V14.01,2013-08-15 09:43:00,
2013-08-15 03:49:00,47.1,38.2,29.80,SSW,198,1.0,1.0,71,0.00,,SKC,0.00,0.00,VWS V14.01,2013-08-15 09:49:00,
2013-08-15 03:54:00,47.1,37.8,29.80,SSW,198,4.0,4.0,70,0.00,,SKC,0.00,0.00,VWS V14.01,2013-08-15 09:54:00,
2013-08-15 04:00:00,47.0,38.5,29.80,SSW,198,2.0,4.0,72,0.00,,SKC,0.00,0.00,VWS V14.01,2013-08-15 10:00:00,
2013-08-15 04:09:00,47.0,38.1,29.79,SSW,198,3.0,5.0,71,0.00,,SKC,0.00,0.00,VWS V14.01,2013-08-15 10:09:00,
2013-08-15 04:15:00,47.5,38.2,29.79,SSW,198,0.0,3.0,70,0.00,,SKC,0.00,0.00,VWS V14.01,2013-08-15 10:15:00,
2013-08-15 04:45:00,47.1,38.5,29.80,SSW,198,1.0,2.0,72,0.00,,SKC,0.00,0.00,VWS V14.01,2013-08-15 10:45:00,
2013-08-15 04:59:00,45.5,38.0,29.80,SSW,198,0.0,5.0,75,0.00,,SKC,0.00,0.00,VWS V14.01,2013-08-15 10:59:00,
2013-08-15 05:07:00,44.8,37.4,29.81,SSW,198,0.0,5.0,75,0.00,,SKC,0.00,0.00,VWS V14.01,2013-08-15 11:07:00,
2013-08-15 05:14:00,44.3,36.9,29.82,SSW,198,0.0,5.0,75,0.00,,SKC,0.00,0.00,VWS V14.01,2013-08-15 11:14:00,
2013-08-15 05:20:00,43.9,36.5,29.82,SSW,198,0.0,0.0,75,0.00,,SKC,0.00,0.00,VWS V14.01,2013-08-15 11:20:00,
2013-08-15 05:28:00,43.7,36.6,29.82,SSW,198,0.0,0.0,76,0.00,,SKC,0.00,0.00,VWS V14.01,2013-08-15 11:28:00,
2013-08-15 05:36:00,43.2,36.8,29.82,SSW,198,0.0,0.0,78,0.00,,SKC,0.00,0.00,VWS V14.01,2013-08-15 11:36:00,
2013-08-15 05:41:00,43.0,36.9,29.82,SSW,198,0.0,0.0,79,0.00,,SKC,0.00,0.00,VWS V14.01,2013-08-15 11:41:00,
2013-08-15 05:46:00,42.9,37.2,29.82,SSW,198,0.0,0.0,80,0.00,,SKC,0.00,0.00,VWS V14.01,2013-08-15 11:46:00,
2013-08-15 05:56:00,42.7,37.0,29.82,SSW,198,0.0,2.0,80,0.00,,SKC,0.00,0.00,VWS V14.01,2013-08-15 11:56:00,
2013-08-15 06:04:00,42.5,37.1,29.83,SSW,198,0.0,2.0,81,0.00,,SKC,0.00,0.00,VWS V14.01,2013-08-15 12:04:00,
2013-08-15 06:10:00,42.4,37.0,29.88,SSW,198,0.0,2.0,81,0.00,,SKC,0.00,0.00,VWS V14.01,2013-08-15 12:10:00,
2013-08-15 06:15:00,44.1,36.7,29.82,SSW,198,0.0,5.0,75,0.00,,SKC,0.00,0.00,VWS V14.01,2013-08-15 12:15:00,
2013-08-15 06:17:00,42.4,37.0,29.88,SSW,198,0.0,2.0,81,0.00,,SKC,0.00,0.00,VWS V14.01,2013-08-15 12:17:00,
2013-08-15 06:22:00,42.2,36.8,29.89,SSW,198,0.0,0.0,81,0.00,,SKC,0.00,0.00,VWS V14.01,2013-08-15 12:22:00,
2013-08-15 06:28:00,42.0,36.9,29.89,SSW,198,0.0,0.0,82,0.00,,SKC,0.00,5.00,VWS V14.01,2013-08-15 12:28:00,
2013-08-15 06:30:00,43.3,36.9,29.82,SSW,198,0.0,0.0,78,0.00,,SKC,0.00,0.00,VWS V14.01,2013-08-15 12:30:00,
2013-08-15 06:33:00,41.9,36.8,29.89,SSW,198,0.0,0.0,82,0.00,,SKC,0.00,7.00,VWS V14.01,2013-08-15 12:33:00,
2013-08-15 06:39:00,41.7,36.6,29.89,SSW,198,0.0,0.0,82,0.00,,SKC,0.00,11.00,VWS V14.01,2013-08-15 12:39:00,
2013-08-15 06:45:00,42.8,37.1,29.82,SSW,198,0.0,0.0,80,0.00,,SKC,0.00,0.00,VWS V14.01,2013-08-15 12:45:00,
2013-08-15 06:47:00,41.5,36.7,29.90,SSW,198,0.0,0.0,83,0.00,,SKC,0.00,14.00,VWS V14.01,2013-08-15 12:47:00,
2013-08-15 06:54:00,41.2,36.4,29.90,SSW,198,0.0,0.0,83,0.00,,SKC,0.00,19.00,VWS V14.01,2013-08-15 12:54:00,
2013-08-15 07:01:00,41.1,36.6,29.90,SSW,198,0.0,0.0,84,0.00,,SKC,0.00,23.00,VWS V14.01,2013-08-15 13:01:00,
2013-08-15 07:08:00,40.9,36.8,29.95,SSW,198,0.0,0.0,85,0.00,,SKC,0.00,26.00,VWS V14.01,2013-08-15 13:08:00,
2013-08-15 07:15:00,40.8,36.7,29.96,SSW,198,0.0,0.0,85,0.00,,SKC,0.00,30.00,VWS V14.01,2013-08-15 13:15:00,
2013-08-15 07:22:00,40.8,36.9,29.96,SSW,198,0.0,0.0,86,0.00,,SKC,0.00,33.00,VWS V14.01,2013-08-15 13:22:00,
2013-08-15 07:31:00,40.9,37.3,29.96,SSW,198,0.0,0.0,87,0.00,,SKC,0.00,40.00,VWS V14.01,2013-08-15 13:31:00,
2013-08-15 07:44:00,41.0,37.7,29.96,SSW,198,0.0,0.0,88,0.00,,SKC,0.00,44.00,VWS V14.01,2013-08-15 13:44:00,
2013-08-15 07:45:00,41.4,36.6,29.90,SSW,198,0.0,0.0,83,0.00,,SKC,0.00,16.00,VWS V14.01,2013-08-15 13:45:00,
2013-08-15 07:49:00,41.2,37.9,29.96,SSW,198,0.0,0.0,88,0.00,,SKC,0.00,49.00,VWS V14.01,2013-08-15 13:49:00,
2013-08-15 07:54:00,41.4,38.1,29.96,SSW,198,0.0,0.0,88,0.00,,SKC,0.00,54.00,VWS V14.01,2013-08-15 13:54:00,
2013-08-15 08:00:00,41.6,38.6,29.95,SSW,198,0.0,1.0,89,0.00,,SKC,0.00,156.00,VWS V14.01,2013-08-15 14:00:00,
2013-08-15 08:06:00,42.0,39.0,29.98,SSW,198,0.0,0.0,89,0.00,,SKC,0.00,241.00,VWS V14.01,2013-08-15 14:06:00,
2013-08-15 08:12:00,42.5,39.8,29.98,SSW,198,0.0,0.0,90,0.00,,SKC,0.00,269.00,VWS V14.01,2013-08-15 14:12:00,
2013-08-15 08:15:00,40.8,36.7,29.96,SSW,198,0.0,0.0,85,0.00,,SKC,0.00,32.00,VWS V14.01,2013-08-15 14:15:00,
2013-08-15 08:17:00,43.3,40.6,29.98,SSW,198,0.0,0.0,90,0.00,,SKC,0.00,279.00,VWS V14.01,2013-08-15 14:17:00,
2013-08-15 08:23:00,44.1,41.4,29.96,SSW,198,0.0,0.0,90,0.00,,SKC,0.00,285.00,VWS V14.01,2013-08-15 14:23:00,
2013-08-15 08:31:00,45.8,42.2,29.95,SSW,198,0.0,1.0,87,0.00,,SKC,0.00,318.00,VWS V14.01,2013-08-15 14:31:00,
2013-08-15 08:38:00,47.2,42.3,29.95,SSW,198,0.0,0.0,83,0.00,,SKC,0.00,343.00,VWS V14.01,2013-08-15 14:38:00,
2013-08-15 08:43:00,48.3,42.1,29.93,SSW,198,0.0,0.0,79,0.00,,SKC,0.00,362.00,VWS V14.01,2013-08-15 14:43:00,
2013-08-15 08:49:00,50.2,43.3,29.92,SSW,198,0.0,1.0,77,0.00,,SKC,0.00,408.00,VWS V14.01,2013-08-15 14:49:00,
2013-08-15 08:56:00,52.1,41.9,29.91,SSW,198,0.0,1.0,68,0.00,,SKC,0.00,420.00,VWS V14.01,2013-08-15 14:56:00,
2013-08-15 09:00:00,41.7,38.7,29.95,SSW,198,0.0,1.0,89,0.00,,SKC,0.00,218.00,VWS V14.01,2013-08-15 15:00:00,
2013-08-15 09:02:00,54.0,42.5,29.89,SSW,198,0.0,0.0,65,0.00,,SKC,0.00,448.00,VWS V14.01,2013-08-15 15:02:00,
2013-08-15 09:08:00,54.7,42.4,29.88,SSW,198,0.0,3.0,63,0.00,,SKC,0.00,461.00,VWS V14.01,2013-08-15 15:08:00,
2013-08-15 09:15:00,56.9,42.7,29.86,SSW,198,3.0,4.0,59,0.00,,SKC,0.00,538.00,VWS V14.01,2013-08-15 15:15:00,
2013-08-15 09:22:00,57.8,43.6,29.86,SSW,198,0.0,1.0,59,0.00,,SKC,0.00,211.00,VWS V14.01,2013-08-15 15:22:00,
2013-08-15 09:28:00,58.3,42.2,29.86,NNE,17,0.0,5.0,55,0.00,,SKC,0.00,188.00,VWS V14.01,2013-08-15 15:28:00,
2013-08-15 09:30:00,45.8,42.2,29.95,SSW,198,0.0,1.0,87,0.00,,SKC,0.00,318.00,VWS V14.01,2013-08-15 15:30:00,
2013-08-15 09:34:00,58.6,43.0,29.85,NE,38,2.0,4.0,56,0.00,,SKC,0.00,594.00,VWS V14.01,2013-08-15 15:34:00,
2013-08-15 09:40:00,59.0,42.9,29.85,NE,37,5.0,5.0,55,0.00,,SKC,0.00,279.00,VWS V14.01,2013-08-15 15:40:00,
2013-08-15 09:45:00,49.2,42.6,29.93,SSW,198,0.0,0.0,78,0.00,,SKC,0.00,374.00,VWS V14.01,2013-08-15 15:45:00,
2013-08-15 09:46:00,59.8,43.6,29.85,NE,34,0.0,5.0,55,0.00,,SKC,0.00,338.00,VWS V14.01,2013-08-15 15:46:00,
2013-08-15 09:52:00,60.1,43.4,29.85,NNE,24,0.0,6.0,54,0.00,,SKC,0.00,292.00,VWS V14.01,2013-08-15 15:52:00,
2013-08-15 09:58:00,60.2,44.0,29.84,North,355,2.0,7.0,55,0.00,,SKC,0.00,290.00,VWS V14.01,2013-08-15 15:58:00,
2013-08-15 10:00:00,53.8,43.5,29.89,SSW,198,0.0,1.0,68,0.00,,SKC,0.00,441.00,VWS V14.01,2013-08-15 16:00:00,
2013-08-15 10:04:00,60.4,44.2,29.86,NNE,14,0.0,3.0,55,0.00,,SKC,0.00,295.00,VWS V14.01,2013-08-15 16:04:00,
2013-08-15 10:11:00,60.9,43.7,29.85,NE,38,2.0,4.0,53,0.00,,SKC,0.00,573.00,VWS V14.01,2013-08-15 16:11:00,
2013-08-15 10:15:00,57.1,42.5,29.86,SSW,198,1.0,4.0,58,0.00,,SKC,0.00,246.00,VWS V14.01,2013-08-15 16:15:00,
2013-08-15 10:16:00,61.0,43.3,29.85,NE,42,1.0,5.0,52,0.00,,SKC,0.00,287.00,VWS V14.01,2013-08-15 16:16:00,
2013-08-15 10:22:00,61.3,44.0,29.85,NE,42,0.0,3.0,53,0.00,,SKC,0.00,292.00,VWS V14.01,2013-08-15 16:22:00,
2013-08-15 10:28:00,61.9,44.1,29.84,NE,42,0.0,3.0,52,0.00,,SKC,0.00,227.00,VWS V14.01,2013-08-15 16:28:00,
2013-08-15 10:30:00,58.4,42.3,29.86,NE,38,2.0,5.0,55,0.00,,SKC,0.00,480.00,VWS V14.01,2013-08-15 16:30:00,
2013-08-15 10:35:00,62.2,43.9,29.84,NE,42,0.0,0.0,51,0.00,,SKC,0.00,554.00,VWS V14.01,2013-08-15 16:35:00,
2013-08-15 10:41:00,62.8,43.4,29.83,NE,42,0.0,0.0,49,0.00,,SKC,0.00,817.00,VWS V14.01,2013-08-15 16:41:00,
2013-08-15 10:45:00,59.8,43.6,29.85,NE,34,0.0,5.0,55,0.00,,SKC,0.00,338.00,VWS V14.01,2013-08-15 16:45:00,
2013-08-15 10:46:00,64.7,46.2,29.82,NE,46,1.0,4.0,51,0.00,,SKC,0.00,833.00,VWS V14.01,2013-08-15 16:46:00,
2013-08-15 10:52:00,65.8,44.5,29.81,SSE,156,0.0,5.0,46,0.00,,SKC,0.00,348.00,VWS V14.01,2013-08-15 16:52:00,
2013-08-15 10:58:00,65.8,43.3,29.80,SSE,155,1.0,5.0,44,0.00,,SKC,0.00,258.00,VWS V14.01,2013-08-15 16:58:00,
2013-08-15 11:00:00,60.3,44.1,29.84,NNE,13,0.0,7.0,55,0.00,,SKC,0.00,290.00,VWS V14.01,2013-08-15 17:00:00,
2013-08-15 11:04:00,65.7,44.4,29.82,SSE,155,0.0,3.0,46,0.00,,SKC,0.00,364.00,VWS V14.01,2013-08-15 17:04:00,
2013-08-15 11:10:00,66.1,46.4,29.81,SSE,155,0.0,3.0,49,0.00,,SKC,0.00,925.00,VWS V14.01,2013-08-15 17:10:00,
2013-08-15 11:15:00,61.0,43.3,29.85,NE,42,1.0,5.0,52,0.00,,SKC,0.00,287.00,VWS V14.01,2013-08-15 17:15:00,
2013-08-15 11:16:00,66.8,45.9,29.81,SSE,155,0.0,3.0,47,0.00,,SKC,0.00,308.00,VWS V14.01,2013-08-15 17:16:00,
2013-08-15 11:21:00,66.9,46.6,29.81,SSE,155,0.0,2.0,48,0.00,,SKC,0.00,373.00,VWS V14.01,2013-08-15 17:21:00,
2013-08-15 11:27:00,67.3,47.0,29.80,SSE,155,0.0,3.0,48,0.00,,SKC,0.00,350.00,VWS V14.01,2013-08-15 17:27:00,
2013-08-15 11:30:00,62.1,43.8,29.84,NE,42,0.0,3.0,51,0.00,,SKC,0.00,234.00,VWS V14.01,2013-08-15 17:30:00,
2013-08-15 11:34:00,67.9,47.0,29.79,ESE,123,0.0,0.0,47,0.00,,SKC,0.00,851.00,VWS V14.01,2013-08-15 17:34:00,
2013-08-15 11:40:00,69.4,44.7,29.78,ESE,123,0.0,3.0,41,0.00,,SKC,0.00,846.00,VWS V14.01,2013-08-15 17:40:00,
2013-08-15 11:45:00,64.7,46.2,29.82,NE,46,1.0,4.0,51,0.00,,SKC,0.00,833.00,VWS V14.01,2013-08-15 17:45:00,
2013-08-15 11:46:00,71.3,46.4,29.77,ESE,123,0.0,3.0,41,0.00,,SKC,0.00,965.00,VWS V14.01,2013-08-15 17:46:00,
2013-08-15 11:51:00,73.0,45.9,29.75,ESE,123,0.0,0.0,38,0.00,,SKC,0.00,984.00,VWS V14.01,2013-08-15 17:51:00,
2013-08-15 11:58:00,74.8,48.2,29.73,ESE,123,0.0,2.0,39,0.00,,SKC,0.00,962.00,VWS V14.01,2013-08-15 17:58:00,
2013-08-15 12:00:00,65.7,44.4,29.80,SSE,155,3.0,5.0,46,0.00,,SKC,0.00,452.00,VWS V14.01,2013-08-15 18:00:00,
2013-08-15 12:04:00,75.5,48.8,29.72,NNE,33,3.0,4.0,39,0.00,,SKC,0.00,353.00,VWS V14.01,2013-08-15 18:04:00,
2013-08-15 12:10:00,75.2,47.2,29.73,NE,34,0.0,4.0,37,0.00,,SKC,0.00,220.00,VWS V14.01,2013-08-15 18:10:00,
2013-08-15 12:15:00,74.7,47.4,29.73,NE,34,0.0,4.0,38,0.00,,SKC,0.00,265.00,VWS V14.01,2013-08-15 18:15:00,
2013-08-15 12:23:00,73.9,48.1,29.74,NE,34,0.0,3.0,40,0.00,,SKC,0.00,946.00,VWS V14.01,2013-08-15 18:23:00,
2013-08-15 12:29:00,75.0,45.5,29.73,NE,38,0.0,3.0,35,0.00,,SKC,0.00,1051.00,VWS V14.01,2013-08-15 18:29:00,
2013-08-15 12:30:00,67.6,47.2,29.80,ESE,123,0.0,3.0,48,0.00,,SKC,0.00,851.00,VWS V14.01,2013-08-15 18:30:00,
2013-08-15 12:36:00,77.1,46.6,29.70,NE,38,0.0,0.0,34,0.00,,SKC,0.00,362.00,VWS V14.01,2013-08-15 18:36:00,
2013-08-15 12:42:00,77.4,49.8,29.70,NE,42,0.0,2.0,38,0.00,,SKC,0.00,265.00,VWS V14.01,2013-08-15 18:42:00,
2013-08-15 12:45:00,71.3,46.4,29.77,ESE,123,0.0,3.0,41,0.00,,SKC,0.00,965.00,VWS V14.01,2013-08-15 18:45:00,
2013-08-15 12:48:00,77.1,49.6,29.70,NE,55,0.0,3.0,38,0.00,,SKC,0.00,352.00,VWS V14.01,2013-08-15 18:48:00,
2013-08-15 12:59:00,77.9,49.6,29.69,SSW,206,5.0,6.0,37,0.00,,SKC,0.00,1016.00,VWS V14.01,2013-08-15 18:59:00,
2013-08-15 13:00:00,75.2,46.4,29.73,NE,34,4.0,4.0,36,0.00,,SKC,0.00,1035.00,VWS V14.01,2013-08-15 19:00:00,
2013-08-15 13:05:00,78.3,46.9,29.72,SSW,212,0.0,7.0,33,0.00,,SKC,0.00,1023.00,VWS V14.01,2013-08-15 19:05:00,
2013-08-15 13:11:00,79.8,45.6,29.70,SSW,201,0.0,7.0,30,0.00,,SKC,0.00,986.00,VWS V14.01,2013-08-15 19:11:00,
2013-08-15 13:15:00,74.6,46.6,29.73,NE,34,0.0,4.0,37,0.00,,SKC,0.00,267.00,VWS V14.01,2013-08-15 19:15:00,
2013-08-15 13:16:00,80.9,48.3,29.68,SSW,201,1.0,7.0,32,0.00,,SKC,0.00,1037.00,VWS V14.01,2013-08-15 19:16:00,
2013-08-15 13:22:00,82.0,50.9,29.67,SSW,200,0.0,3.0,34,0.00,,SKC,0.00,1027.00,VWS V14.01,2013-08-15 19:22:00,
2013-08-15 13:29:00,82.9,46.5,29.67,SSW,201,0.0,3.0,28,0.00,,SKC,0.00,246.00,VWS V14.01,2013-08-15 19:29:00,
2013-08-15 13:30:00,75.8,49.1,29.71,NE,38,0.0,3.0,39,0.00,,SKC,0.00,1035.00,VWS V14.01,2013-08-15 19:30:00,
2013-08-15 13:35:00,83.1,45.7,29.67,SSW,201,3.0,3.0,27,0.00,,SKC,0.00,1037.00,VWS V14.01,2013-08-15 19:35:00,
2013-08-15 13:41:00,83.8,49.1,29.66,SSE,153,6.0,7.0,30,0.00,,SKC,0.00,1062.00,VWS V14.01,2013-08-15 19:41:00,
2013-08-15 13:45:00,77.2,48.2,29.70,NE,42,0.0,2.0,36,0.00,,SKC,0.00,348.00,VWS V14.01,2013-08-15 19:45:00,
2013-08-15 13:46:00,83.9,45.4,29.67,South,190,5.0,7.0,26,0.00,,SKC,0.00,1030.00,VWS V14.01,2013-08-15 19:46:00,
2013-08-15 13:52:00,84.5,41.5,29.67,SSE,155,2.0,7.0,22,0.00,,SKC,0.00,1007.00,VWS V14.01,2013-08-15 19:52:00,
2013-08-15 13:58:00,85.5,43.5,29.65,North,360,0.0,7.0,23,0.00,,SKC,0.00,993.00,VWS V14.01,2013-08-15 19:58:00,
2013-08-15 14:00:00,78.1,48.2,29.69,South,189,2.0,6.0,35,0.00,,SKC,0.00,1037.00,VWS V14.01,2013-08-15 20:00:00,
2013-08-15 14:03:00,85.5,45.7,29.66,NE,42,0.0,2.0,25,0.00,,SKC,0.00,287.00,VWS V14.01,2013-08-15 20:03:00,
2013-08-15 14:10:00,84.5,43.8,29.66,NNW,347,0.0,6.0,24,0.00,,SKC,0.00,341.00,VWS V14.01,2013-08-15 20:10:00,
2013-08-15 14:15:00,80.9,48.3,29.68,SSW,201,1.0,7.0,32,0.00,,SKC,0.00,1037.00,VWS V14.01,2013-08-15 20:15:00,
2013-08-15 14:16:00,84.9,39.4,29.67,NW,322,0.0,6.0,20,0.00,,SKC,0.00,1125.00,VWS V14.01,2013-08-15 20:16:00,
2013-08-15 14:22:00,85.2,37.0,29.67,SW,217,4.0,12.0,18,0.00,,SKC,0.00,1072.00,VWS V14.01,2013-08-15 20:22:00,
2013-08-15 14:29:00,85.1,42.0,29.66,SSE,161,5.0,12.0,22,0.00,,SKC,0.00,315.00,VWS V14.01,2013-08-15 20:29:00,
2013-08-15 14:30:00,82.7,43.3,29.67,SSW,200,0.0,3.0,25,0.00,,SKC,0.00,969.00,VWS V14.01,2013-08-15 20:30:00,
2013-08-15 14:35:00,84.2,38.8,29.67,SSE,156,5.0,11.0,20,0.00,,SKC,0.00,362.00,VWS V14.01,2013-08-15 20:35:00,
2013-08-15 14:41:00,83.4,40.6,29.67,SSE,161,9.0,11.0,22,0.00,,SKC,0.00,343.00,VWS V14.01,2013-08-15 20:41:00,
2013-08-15 14:45:00,83.9,45.4,29.67,South,190,5.0,7.0,26,0.00,,SKC,0.00,1030.00,VWS V14.01,2013-08-15 20:45:00,
2013-08-15 14:46:00,83.6,40.8,29.66,SE,128,11.0,16.0,22,0.00,,SKC,0.00,967.00,VWS V14.01,2013-08-15 20:46:00,
2013-08-15 14:52:00,84.4,40.2,29.66,SW,215,6.0,12.0,21,0.00,,SKC,0.00,951.00,VWS V14.01,2013-08-15 20:52:00,
2013-08-15 15:00:00,85.7,45.9,29.65,NE,36,1.0,7.0,25,0.00,,SKC,0.00,295.00,VWS V14.01,2013-08-15 21:00:00,
2013-08-15 15:02:00,84.2,36.2,29.67,SSW,205,5.0,20.0,18,0.00,,SKC,0.00,264.00,VWS V14.01,2013-08-15 21:02:00,
2013-08-15 15:08:00,83.4,36.9,29.68,NNW,342,6.0,23.0,19,0.00,,SKC,0.00,239.00,VWS V14.01,2013-08-15 21:08:00,
2013-08-15 15:14:00,83.5,39.5,29.67,ENE,66,2.0,23.0,21,0.00,,SKC,0.00,258.00,VWS V14.01,2013-08-15 21:14:00,
2013-08-15 15:15:00,85.1,39.6,29.67,NW,322,1.0,6.0,20,0.00,,SKC,0.00,1125.00,VWS V14.01,2013-08-15 21:15:00,
2013-08-15 15:20:00,83.0,40.3,29.67,NNE,19,0.0,6.0,22,0.00,,SKC,0.00,183.00,VWS V14.01,2013-08-15 21:20:00,
2013-08-15 15:26:00,83.3,38.1,29.67,SSW,196,0.0,6.0,20,0.00,,SKC,0.00,821.00,VWS V14.01,2013-08-15 21:26:00,
2013-08-15 15:30:00,84.7,37.9,29.66,West,260,2.0,12.0,19,0.00,,SKC,0.00,350.00,VWS V14.01,2013-08-15 21:30:00,
2013-08-15 15:31:00,83.9,39.8,29.67,NW,321,1.0,10.0,21,0.00,,SKC,0.00,831.00,VWS V14.01,2013-08-15 21:31:00,
2013-08-15 15:38:00,85.0,41.9,29.65,NNE,24,5.0,13.0,22,0.00,,SKC,0.00,798.00,VWS V14.01,2013-08-15 21:38:00,
2013-08-15 15:44:00,85.9,42.7,29.65,SSE,157,5.0,13.0,22,0.00,,SKC,0.00,793.00,VWS V14.01,2013-08-15 21:44:00,
2013-08-15 15:45:00,83.6,40.8,29.66,SE,128,11.0,16.0,22,0.00,,SKC,0.00,967.00,VWS V14.01,2013-08-15 21:45:00,
2013-08-15 15:50:00,85.6,40.0,29.65,ENE,78,2.0,5.0,20,0.00,,SKC,0.00,174.00,VWS V14.01,2013-08-15 21:50:00,
2013-08-15 15:56:00,84.5,42.7,29.64,ESE,111,0.0,5.0,23,0.00,,SKC,0.00,223.00,VWS V14.01,2013-08-15 21:56:00,
2013-08-15 16:00:00,84.2,36.2,29.67,SSW,205,5.0,20.0,18,0.00,,SKC,0.00,264.00,VWS V14.01,2013-08-15 22:00:00,
2013-08-15 16:01:00,84.2,43.5,29.66,ENE,57,0.0,5.0,24,0.00,,SKC,0.00,786.00,VWS V14.01,2013-08-15 22:01:00,
2013-08-15 16:07:00,84.2,43.5,29.66,ENE,77,0.0,5.0,24,0.00,,SKC,0.00,151.00,VWS V14.01,2013-08-15 22:07:00,
2013-08-15 16:13:00,83.9,41.0,29.67,WSW,247,1.0,5.0,22,0.00,,SKC,0.00,162.00,VWS V14.01,2013-08-15 22:13:00,
2013-08-15 16:15:00,83.3,40.5,29.67,NNE,30,0.0,23.0,22,0.00,,SKC,0.00,188.00,VWS V14.01,2013-08-15 22:15:00,
2013-08-15 16:20:00,83.8,42.1,29.67,South,181,4.0,6.0,23,0.00,,SKC,0.00,719.00,VWS V14.01,2013-08-15 22:20:00,
2013-08-15 16:26:00,84.6,39.2,29.66,SSW,192,2.0,8.0,20,0.00,,SKC,0.00,719.00,VWS V14.01,2013-08-15 22:26:00,
2013-08-15 16:30:00,83.9,39.8,29.67,NNW,336,4.0,10.0,21,0.00,,SKC,0.00,831.00,VWS V14.01,2013-08-15 22:30:00,
2013-08-15 16:31:00,84.6,47.0,29.65,SSW,192,0.0,8.0,27,0.00,,SKC,0.00,156.00,VWS V14.01,2013-08-15 22:31:00,
2013-08-15 16:38:00,84.3,44.7,29.66,SE,146,1.0,3.0,25,0.00,,SKC,0.00,647.00,VWS V14.01,2013-08-15 22:38:00,
2013-08-15 16:44:00,84.8,40.6,29.66,SE,136,1.0,6.0,21,0.00,,SKC,0.00,694.00,VWS V14.01,2013-08-15 22:44:00,
2013-08-15 16:45:00,85.9,40.2,29.65,SSE,153,0.0,13.0,20,0.00,,SKC,0.00,149.00,VWS V14.01,2013-08-15 22:45:00,
2013-08-15 16:50:00,84.4,39.0,29.66,SSE,165,1.0,10.0,20,0.00,,SKC,0.00,169.00,VWS V14.01,2013-08-15 22:50:00,
2013-08-15 16:56:00,83.6,37.0,29.68,SSE,161,0.0,12.0,19,0.00,,SKC,0.00,155.00,VWS V14.01,2013-08-15 22:56:00,
2013-08-15 17:00:00,84.2,43.5,29.66,ENE,57,0.0,5.0,24,0.00,,SKC,0.00,786.00,VWS V14.01,2013-08-15 23:00:00,
2013-08-15 17:01:00,83.1,36.6,29.68,WSW,250,3.0,12.0,19,0.00,,SKC,0.00,192.00,VWS V14.01,2013-08-15 23:01:00,
2013-08-15 17:07:00,82.8,42.4,29.68,SSE,148,0.0,10.0,24,0.00,,SKC,0.00,585.00,VWS V14.01,2013-08-15 23:07:00,
2013-08-15 17:15:00,82.8,42.4,29.68,ESE,122,5.0,10.0,24,0.00,,SKC,0.00,547.00,VWS V14.01,2013-08-15 23:15:00,
2013-08-15 17:21:00,83.0,41.4,29.69,SSW,199,3.0,10.0,23,0.00,,SKC,0.00,513.00,VWS V14.01,2013-08-15 23:21:00,
2013-08-15 17:27:00,83.8,38.5,29.68,SSW,202,0.0,10.0,20,0.00,,SKC,0.00,494.00,VWS V14.01,2013-08-15 23:27:00,
2013-08-15 17:30:00,84.6,47.0,29.65,SSW,192,0.0,8.0,27,0.00,,SKC,0.00,156.00,VWS V14.01,2013-08-15 23:30:00,
2013-08-15 17:32:00,84.4,45.8,29.68,South,175,3.0,3.0,26,0.00,,SKC,0.00,469.00,VWS V14.01,2013-08-15 23:32:00,
2013-08-15 17:39:00,84.5,41.5,29.67,South,178,0.0,7.0,22,0.00,,SKC,0.00,388.00,VWS V14.01,2013-08-15 23:39:00,
2013-08-15 17:45:00,83.9,39.8,29.69,South,180,1.0,12.0,21,0.00,,SKC,0.00,396.00,VWS V14.01,2013-08-15 23:45:00,
2013-08-15 17:52:00,83.6,43.0,29.68,SSE,156,3.0,9.0,24,0.00,,SKC,0.00,369.00,VWS V14.01,2013-08-15 23:52:00,
2013-08-15 17:57:00,83.2,42.7,29.68,SE,134,1.0,9.0,24,0.00,,SKC,0.00,346.00,VWS V14.01,2013-08-15 23:57:00,
2013-08-15 18:00:00,83.1,36.6,29.68,WSW,250,3.0,12.0,19,0.00,,SKC,0.00,192.00,VWS V14.01,2013-08-16 00:00:00,
2013-08-15 18:03:00,82.9,44.5,29.69,South,180,4.0,4.0,26,0.00,,SKC,0.00,322.00,VWS V14.01,2013-08-16 00:03:00,
2013-08-15 18:08:00,82.7,42.3,29.69,South,185,1.0,4.0,24,0.00,,SKC,0.00,156.00,VWS V14.01,2013-08-16 00:08:00,
2013-08-15 18:14:00,82.3,43.0,29.71,West,271,2.0,4.0,25,0.00,,SKC,0.00,62.00,VWS V14.01,2013-08-16 00:14:00,
2013-08-15 18:15:00,82.9,42.4,29.68,South,177,10.0,10.0,24,0.00,,SKC,0.00,545.00,VWS V14.01,2013-08-16 00:15:00,
2013-08-15 18:20:00,81.5,42.3,29.71,West,267,3.0,3.0,25,0.00,,SKC,0.00,58.00,VWS V14.01,2013-08-16 00:20:00,
2013-08-15 18:26:00,80.9,41.8,29.71,West,265,1.0,3.0,25,0.00,,SKC,0.00,54.00,VWS V14.01,2013-08-16 00:26:00,
2013-08-15 18:30:00,84.3,43.6,29.68,South,174,1.0,10.0,24,0.00,,SKC,0.00,480.00,VWS V14.01,2013-08-16 00:30:00,
2013-08-15 18:31:00,79.8,42.9,29.72,West,265,3.0,4.0,27,0.00,,SKC,0.00,51.00,VWS V14.01,2013-08-16 00:31:00,
2013-08-15 18:37:00,78.8,42.0,29.72,West,269,1.0,5.0,27,0.00,,SKC,0.00,47.00,VWS V14.01,2013-08-16 00:37:00,
2013-08-15 18:43:00,77.8,44.8,29.73,West,269,0.0,5.0,31,0.00,,SKC,0.00,46.00,VWS V14.01,2013-08-16 00:43:00,
2013-08-15 18:45:00,83.9,41.0,29.69,SSW,196,7.0,12.0,22,0.00,,SKC,0.00,388.00,VWS V14.01,2013-08-16 00:45:00,
2013-08-15 18:50:00,77.0,43.2,29.73,West,269,0.0,0.0,30,0.00,,SKC,0.00,42.00,VWS V14.01,2013-08-16 00:50:00,
2013-08-15 18:56:00,76.0,44.0,29.75,West,265,0.0,5.0,32,0.00,,SKC,0.00,39.00,VWS V14.01,2013-08-16 00:56:00,
2013-08-15 19:00:00,82.9,40.2,29.68,South,183,2.0,9.0,22,0.00,,SKC,0.00,329.00,VWS V14.01,2013-08-16 01:00:00,
2013-08-15 19:01:00,74.9,43.1,29.75,West,265,0.0,5.0,32,0.00,,SKC,0.00,37.00,VWS V14.01,2013-08-16 01:01:00,
2013-08-15 19:07:00,74.2,44.8,29.74,West,265,0.0,3.0,35,0.00,,SKC,0.00,35.00,VWS V14.01,2013-08-16 01:07:00,
2013-08-15 19:13:00,73.3,46.2,29.76,West,265,0.0,3.0,38,0.00,,SKC,0.00,32.00,VWS V14.01,2013-08-16 01:13:00,
2013-08-15 19:15:00,82.0,42.8,29.71,West,269,1.0,4.0,25,0.00,,SKC,0.00,60.00,VWS V14.01,2013-08-16 01:15:00,
2013-08-15 19:21:00,72.4,45.4,29.76,West,265,0.0,0.0,38,0.00,,SKC,0.00,28.00,VWS V14.01,2013-08-16 01:21:00,
2013-08-15 19:27:00,71.7,45.5,29.76,West,265,0.0,0.0,39,0.00,,SKC,0.00,26.00,VWS V14.01,2013-08-16 01:27:00,
2013-08-15 19:30:00,79.8,42.9,29.72,West,265,3.0,4.0,27,0.00,,SKC,0.00,51.00,VWS V14.01,2013-08-16 01:30:00,
2013-08-15 19:34:00,71.0,44.8,29.78,West,265,0.0,0.0,39,0.00,,SKC,0.00,23.00,VWS V14.01,2013-08-16 01:34:00,
2013-08-15 19:42:00,69.8,41.7,29.79,West,265,0.0,1.0,36,0.00,,SKC,0.00,19.00,VWS V14.01,2013-08-16 01:42:00,
2013-08-15 19:45:00,77.4,45.3,29.73,West,269,0.0,5.0,32,0.00,,SKC,0.00,44.00,VWS V14.01,2013-08-16 01:45:00,
2013-08-15 19:48:00,68.9,41.6,29.80,West,265,2.0,3.0,37,0.00,,SKC,0.00,14.00,VWS V14.01,2013-08-16 01:48:00,
2013-08-15 19:54:00,68.1,40.2,29.81,West,265,3.0,4.0,36,0.00,,SKC,0.00,11.00,VWS V14.01,2013-08-16 01:54:00,
2013-08-15 20:00:00,67.6,41.1,29.81,West,265,3.0,5.0,38,0.00,,SKC,0.00,7.00,VWS V14.01,2013-08-16 02:00:00,
2013-08-15 20:06:00,67.0,42.5,29.74,SSW,205,3.0,4.0,41,0.00,,SKC,0.00,0.00,VWS V14.01,2013-08-16 02:06:00,
2013-08-15 20:12:00,66.6,42.2,29.75,SSW,205,2.0,4.0,41,0.00,,SKC,0.00,0.00,VWS V14.01,2013-08-16 02:12:00,
2013-08-15 20:15:00,72.9,43.7,29.76,West,265,0.0,3.0,35,0.00,,SKC,0.00,30.00,VWS V14.01,2013-08-16 02:15:00,
2013-08-15 20:19:00,66.1,41.7,29.75,SSW,205,2.0,5.0,41,0.00,,SKC,0.00,0.00,VWS V14.01,2013-08-16 02:19:00,
2013-08-15 20:25:00,65.7,41.4,29.75,SSE,167,5.0,5.0,41,0.00,,SKC,0.00,0.00,VWS V14.01,2013-08-16 02:25:00,
2013-08-15 20:30:00,71.2,44.3,29.78,West,265,0.0,0.0,38,0.00,,SKC,0.00,25.00,VWS V14.01,2013-08-16 02:30:00,
2013-08-15 20:31:00,65.5,41.8,29.75,SSE,167,5.0,6.0,42,0.00,,SKC,0.00,0.00,VWS V14.01,2013-08-16 02:31:00,
2013-08-15 20:37:00,65.6,41.9,29.75,SSE,153,2.0,6.0,42,0.00,,SKC,0.00,0.00,VWS V14.01,2013-08-16 02:37:00,
2013-08-15 20:42:00,65.6,41.9,29.75,SSE,154,4.0,6.0,42,0.00,,SKC,0.00,0.00,VWS V14.01,2013-08-16 02:42:00,
2013-08-15 20:45:00,69.1,41.8,29.80,West,265,0.0,2.0,37,0.00,,SKC,0.00,16.00,VWS V14.01,2013-08-16 02:45:00,
2013-08-15 20:49:00,65.5,42.4,29.76,SSE,157,3.0,4.0,43,0.00,,SKC,0.00,0.00,VWS V14.01,2013-08-16 02:49:00,
2013-08-15 20:55:00,65.3,41.6,29.77,South,188,3.0,5.0,42,0.00,,SKC,0.00,0.00,VWS V14.01,2013-08-16 02:55:00,
2013-08-15 21:00:00,67.4,40.9,29.81,West,265,2.0,5.0,38,0.00,,SKC,0.00,5.00,VWS V14.01,2013-08-16 03:00:00,
2013-08-15 21:01:00,65.2,42.2,29.77,South,172,2.0,6.0,43,0.00,,SKC,0.00,0.00,VWS V14.01,2013-08-16 03:01:00,
2013-08-15 21:07:00,65.0,42.0,29.74,South,186,7.0,7.0,43,0.00,,SKC,0.00,0.00,VWS V14.01,2013-08-16 03:07:00,
2013-08-15 21:13:00,65.0,42.0,29.74,SSE,167,7.0,7.0,43,0.00,,SKC,0.00,0.00,VWS V14.01,2013-08-16 03:13:00,
2013-08-15 21:15:00,66.3,41.3,29.75,SSW,205,0.0,4.0,40,0.00,,SKC,0.00,0.00,VWS V14.01,2013-08-16 03:15:00,
2013-08-15 21:20:00,65.1,41.5,29.74,South,178,4.0,6.0,42,0.00,,SKC,0.00,0.00,VWS V14.01,2013-08-16 03:20:00,
2013-08-15 21:26:00,65.1,41.5,29.74,SSE,154,5.0,7.0,42,0.00,,SKC,0.00,0.00,VWS V14.01,2013-08-16 03:26:00,
2013-08-15 21:30:00,65.5,41.8,29.75,SSE,163,4.0,6.0,42,0.00,,SKC,0.00,0.00,VWS V14.01,2013-08-16 03:30:00,
2013-08-15 21:31:00,65.3,41.6,29.74,SSW,209,4.0,7.0,42,0.00,,SKC,0.00,0.00,VWS V14.01,2013-08-16 03:31:00,
2013-08-15 21:37:00,65.5,41.2,29.73,SSW,194,4.0,10.0,41,0.00,,SKC,0.00,0.00,VWS V14.01,2013-08-16 03:37:00,
2013-08-15 21:43:00,65.7,41.4,29.73,SE,126,3.0,10.0,41,0.00,,SKC,0.00,0.00,VWS V14.01,2013-08-16 03:43:00,
2013-08-15 21:45:00,65.6,41.9,29.75,SSE,157,4.0,6.0,42,0.00,,SKC,0.00,0.00,VWS V14.01,2013-08-16 03:45:00,
2013-08-15 21:48:00,65.7,41.4,29.73,SSE,152,4.0,4.0,41,0.00,,SKC,0.00,0.00,VWS V14.01,2013-08-16 03:48:00,
2013-08-15 21:54:00,65.6,41.3,29.74,SSE,155,3.0,10.0,41,0.00,,SKC,0.00,0.00,VWS V14.01,2013-08-16 03:54:00,
2013-08-15 22:00:00,65.4,41.1,29.75,South,172,4.0,10.0,41,0.00,,SKC,0.00,0.00,VWS V14.01,2013-08-16 04:00:00,
2013-08-15 22:02:00,65.5,41.2,29.74,SSW,193,5.0,10.0,41,0.00,,SKC,0.00,0.00,VWS V14.01,2013-08-16 04:02:00,
2013-08-15 22:03:00,65.5,41.2,29.70,SSE,149,4.0,6.0,41,0.00,,SKC,0.00,0.00,VWS V14.01,2013-08-16 04:03:00,
2013-08-15 22:05:00,65.4,41.1,29.70,SW,222,6.0,6.0,41,0.00,,SKC,0.00,0.00,VWS V14.01,2013-08-16 04:05:00,
2013-08-15 22:11:00,65.4,41.1,29.71,SSE,166,4.0,10.0,41,0.00,,SKC,0.00,0.00,VWS V14.01,2013-08-16 04:11:00,
2013-08-15 22:13:00,65.3,41.0,29.71,SSE,156,4.0,10.0,41,0.00,,SKC,0.00,0.00,VWS V14.01,2013-08-16 04:13:00,
2013-08-15 22:15:00,65.0,41.4,29.74,South,176,6.0,7.0,42,0.00,,SKC,0.00,0.00,VWS V14.01,2013-08-16 04:15:00,
2013-08-15 22:16:00,65.3,41.0,29.71,SSE,156,7.0,10.0,41,0.00,,SKC,0.00,0.00,VWS V14.01,2013-08-16 04:16:00,
2013-08-15 22:22:00,65.2,40.9,29.71,South,190,7.0,12.0,41,0.00,,SKC,0.00,0.00,VWS V14.01,2013-08-16 04:22:00,
2013-08-15 22:28:00,65.0,40.8,29.71,ESE,103,5.0,12.0,41,0.00,,SKC,0.00,0.00,VWS V14.01,2013-08-16 04:28:00,
2013-08-15 22:30:00,65.3,41.6,29.74,SSW,209,4.0,7.0,42,0.00,,SKC,0.00,0.00,VWS V14.01,2013-08-16 04:30:00,
2013-08-15 22:34:00,64.8,40.6,29.72,South,177,7.0,10.0,41,0.00,,SKC,0.00,0.00,VWS V14.01,2013-08-16 04:34:00,
2013-08-15 22:40:00,64.6,41.0,29.72,South,187,3.0,10.0,42,0.00,,SKC,0.00,0.00,VWS V14.01,2013-08-16 04:40:00,
2013-08-15 22:45:00,65.7,41.4,29.74,West,263,2.0,10.0,41,0.00,,SKC,0.00,0.00,VWS V14.01,2013-08-16 04:45:00,
2013-08-15 22:46:00,64.4,40.8,29.72,South,185,1.0,10.0,42,0.00,,SKC,0.00,0.00,VWS V14.01,2013-08-16 04:46:00,
2013-08-15 22:51:00,64.2,40.7,29.72,SSE,158,3.0,6.0,42,0.00,,SKC,0.00,0.00,VWS V14.01,2013-08-16 04:51:00,
2013-08-15 23:00:00,63.9,40.4,29.73,SSE,168,4.0,6.0,42,0.00,,SKC,0.00,0.00,VWS V14.01,2013-08-16 05:00:00,
2013-08-15 23:05:00,63.6,40.1,29.67,SSE,161,4.0,6.0,42,0.00,,SKC,0.00,0.00,VWS V14.01,2013-08-16 05:05:00,
2013-08-15 23:12:00,63.2,40.3,29.68,South,172,2.0,6.0,43,0.00,,SKC,0.00,0.00,VWS V14.01,2013-08-16 05:12:00,
2013-08-15 23:15:00,65.3,41.0,29.71,SE,140,7.0,10.0,41,0.00,,SKC,0.00,0.00,VWS V14.01,2013-08-16 05:15:00,
2013-08-15 23:21:00,62.6,40.4,29.68,South,172,5.0,6.0,44,0.00,,SKC,0.00,0.00,VWS V14.01,2013-08-16 05:21:00,
2013-08-15 23:27:00,62.2,40.0,29.69,SSE,165,4.0,9.0,44,0.00,,SKC,0.00,0.00,VWS V14.01,2013-08-16 05:27:00,
2013-08-15 23:30:00,64.9,40.7,29.72,SSE,162,4.0,12.0,41,0.00,,SKC,0.00,0.00,VWS V14.01,2013-08-16 05:30:00,
2013-08-15 23:37:00,61.9,40.3,29.69,South,175,6.0,7.0,45,0.00,,SKC,0.00,0.00,VWS V14.01,2013-08-16 05:37:00,
2013-08-15 23:43:00,61.8,39.7,29.70,South,180,5.0,7.0,44,0.00,,SKC,0.00,0.00,VWS V14.01,2013-08-16 05:43:00,
2013-08-15 23:45:00,64.4,40.8,29.72,South,185,1.0,10.0,42,0.00,,SKC,0.00,0.00,VWS V14.01,2013-08-16 05:45:00,
2013-08-15 23:50:00,61.6,40.1,29.69,South,179,9.0,10.0,45,0.00,,SKC,0.00,0.00,VWS V14.01,2013-08-16 05:50:00,
2013-08-15 23:55:00,61.4,39.9,29.69,SSW,201,4.0,10.0,45,0.00,,SKC,0.00,0.00,VWS V14.01,2013-08-16 05:55:00,